STARLINK-30470, 57892

Orbit data source: Space-Track

STARLINK-30470, 57892 is a payload satellite owned by SpaceX/Seattle (US) in LEO that was launched on Wed, 20 Sep 2023 UTC via an FALCON 9 launch vehicle from the Air Force Eastern Test Range (AFETR). Payload-class satellites include a variety of spacecraft equipped with specific instruments for various scientific and technological missions. These include communications satellites like Starlink; space stations such as the ISS; scientific satellites like the Hubble; Earth observation satellites from companies like Planet Labs, Umbra, and HawkEye 360; GPS; miniature CubeSats for education and research; and military/defense satellites.

Loading next visibility...
Identifier
57892, 2023-146B
Orbit
LEO
Country
Flag of USUS
Related business
Manufacturer
SpaceX/Seattle
Mission
Operational Commercial Communications
Bus & Motor
STARLINK V2M, Unknown motor
Mass
730 kg wet, ~700 kg dry
Launch date (UTC)
2023-09-20 (3 years ago)
Launch vehicle
FALCON 9
Launch site
Air Force Eastern Test Range (AFETR)
Object type
Payload
Rocket body
Debris
Shape & HBR
Box + 2 Pan, 17.7 m
Radar Cross Section
33.884 m², Large (>1 m²)

Expand to show TLE details & history
Last TLE update: 2 days ago

TLE from 2 days ago
0 STARLINK-30470
1 57892U 23146B   26171.11165978  .00000631  00000-0  32448-4 0  9997
2 57892  43.0054  95.4974 0001262 288.3284  71.7430 15.27567820152725
Epoch: 2026-06-20T02:40Z
TLE epoch observation values (Epoch: 2026-06-20T02:40:47.404Z)
Latitude
-0.00002°
Longitude
146.96888°
Altitude
482.59 km
Speed
7.626 km/s
True Right ascension
06h 21m 59s
True Declination
0° 00' 00"
Sunlit
Object was in daylight at epoch
Visualization orbit readout
Latitude
Unknown
Longitude
Unknown
Altitude
Unknown
Speed
Unknown
Apparent Right ascension
Unknown
Apparent Declination
Unknown
Sunlit
N/A
Visualization observer readout
Local Sidereal Time
21:38:51
Azimuth
Unknown
Elevation
Unknown
Doppler factor
Unknown
Orbital elements
Apogee altitude
485.896 km
Perigee altitude
484.164 km
Semi-major axis
6,863.167 km
Eccentricity
0.00013
Inclination
43.0054°
RAAN
95.4974°
Arg. of periapsis
288.3284°
True anomaly
71.75673°
Mean anomaly
71.743°
Eccentric anomaly
71.74987°
Mean motion
3.8173 °/min
Orbital period
94.31 mins
BSTAR
0.000032448
Loading maneuver chart data...
Computing Atmospheric mass density...
Loading historical data...
Loading historical data...
Loading historical data...
Loading historical data...
Loading historical data...
Loading historical data...
Loading historical data...

Documentation

Showing up to 5 results
|